Date,TemperatureHighF,TemperatureAvgF,TemperatureLowF,DewpointHighF,DewpointAvgF,DewpointLowF,HumidityHigh,HumidityAvg,HumidityLow,PressureMaxIn,PressureMinIn,WindSpeedMaxMPH,WindSpeedAvgMPH,GustSpeedMaxMPH,PrecipitationSumIn
2013-10-1,68.9,57.9,46.4,59.1,54.7,46.1,99,90,61,30.17,30.08,9,1,9,0.00
2013-10-2,69.9,56.9,46.6,61.0,53.9,46.3,99,91,63,30.22,30.11,2,0,6,0.01
2013-10-3,71.7,59.3,50.6,63.6,56.7,50.3,99,92,66,30.17,30.09,2,0,7,0.00
2013-10-4,72.7,60.1,50.5,63.9,57.2,50.2,100,91,64,30.19,30.10,2,0,8,0.00
2013-10-5,75.7,61.3,51.3,64.9,58.1,51.0,99,90,64,30.18,30.05,4,0,9,0.01
2013-10-6,73.1,64.2,56.9,64.5,60.2,56.6,100,88,70,30.07,29.85,5,1,15,0.00
2013-10-7,65.7,54.7,46.1,61.6,52.6,45.4,99,93,79,30.06,29.77,7,0,7,1.10
2013-10-8,62.9,49.1,38.5,52.1,44.7,38.1,99,86,58,30.26,30.05,3,0,10,0.01
2013-10-9,65.2,49.7,37.9,53.9,44.0,37.4,99,83,48,30.28,30.16,2,0,7,0.00
2013-10-10,62.7,49.9,37.8,53.5,45.9,37.5,99,87,58,30.19,30.07,3,0,9,0.00
2013-10-11,66.1,55.5,47.8,55.0,50.4,47.3,99,85,53,30.08,29.97,3,0,13,0.01
2013-10-12,62.9,57.9,54.2,57.9,55.1,51.8,98,91,82,30.11,30.00,3,0,9,0.00
2013-10-13,64.7,58.5,54.5,62.2,57.5,53.8,99,97,88,30.23,30.11,2,0,4,0.05
2013-10-14,64.7,58.2,54.1,58.3,56.2,53.7,99,93,77,30.24,30.15,3,0,7,0.00
2013-10-15,66.0,57.0,51.6,57.6,53.5,50.3,97,89,70,30.20,30.05,5,1,10,0.00
2013-10-16,66.9,56.8,47.1,56.9,52.6,46.6,99,87,67,30.08,29.95,3,0,6,0.00
2013-10-17,68.8,58.7,51.8,63.7,56.9,50.7,98,94,76,29.98,29.80,3,0,12,0.07
2013-10-18,62.9,53.2,47.5,53.1,48.2,41.8,96,85,54,30.02,29.92,3,0,9,0.00
2013-10-19,56.1,51.9,50.6,52.3,50.8,49.8,98,96,86,29.97,29.89,1,0,3,0.00
2013-10-20,59.0,48.4,34.5,44.3,37.3,26.7,97,70,31,30.13,29.94,5,1,7,0.00
2013-10-21,60.9,44.4,37.4,50.1,42.4,36.9,99,93,62,30.17,30.03,11,1,11,0.00
2013-10-22,62.5,54.7,45.0,48.4,46.8,44.5,99,76,53,30.04,29.83,7,1,13,0.00
2013-10-23,47.6,41.9,32.2,46.1,37.4,28.3,97,84,65,30.04,29.73,5,1,20,0.07
2013-10-24,43.4,34.2,28.4,34.6,30.2,26.6,94,86,67,30.23,30.03,10,1,10,41.32
2013-10-25,34.5,30.4,24.5,33.6,26.9,23.0,97,86,76,30.43,30.23,8,1,15,0.01
2013-10-26,51.2,35.1,19.8,37.6,27.1,18.8,97,76,34,30.42,30.15,9,1,10,0.01
2013-10-30,69.1,58.2,51.4,57.1,52.7,49.3,98,83,59,30.28,30.16,12,0,13,0.01
2013-10-31,63.1,58.2,52.2,57.4,53.2,50.1,98,84,68,30.17,29.83,16,1,18,0.00